FW6634 Weather Reports


time (UTC)temp
F
wind
direction
speed
knots
gust
knots
rain 1hr
in
rain 24hr
in
rain mn
in
humidity
%
barometer
mb
20260510140559 71 290 1.7 5.2 0.00 0.00 0.00 67 1016.8
20260510140002 70 231 0.9 4.3 0.00 0.00 0.00 70 1016.7
20260510135700 70 330 0.9 4.3 0.00 0.00 0.00 69 1016.6
20260510135100 69 310 2.6 4.3 0.00 0.00 0.00 71 1016.7
20260510134200 68 244 0.9 4.3 0.00 0.00 0.00 73 1016.6
20260510133559 68 287 0.9 4.3 0.00 0.00 0.00 76 1016.5
20260510132700 67 293 1.7 4.3 0.00 0.00 0.00 76 1016.6
20260510132101 67 297 1.7 4.3 0.00 0.00 0.00 77 1016.6
20260510131159 65 293 0.9 5.2 0.00 0.00 0.00 80 1016.6
20260510130600 65 307 1.7 4.3 0.00 0.00 0.00 80 1016.6
20260510130001 64 257 1.7 5.2 0.00 0.00 0.00 82 1016.6
20260510125700 64 312 2.6 6.1 0.00 0.00 0.00 80 1016.7
20260510125059 64 299 2.6 6.1 0.00 0.00 0.00 81 1016.6
20260510124159 64 299 0.9 3.5 0.00 0.00 0.00 82 1016.4
20260510123600 64 248 0.0 1.7 0.00 0.00 0.00 83 1016.3
20260510122659 63 266 0.9 3.5 0.00 0.00 0.00 83 1016.2
20260510122059 63 219 0.0 0.9 0.00 0.00 0.00 86 1016.1
20260510121159 62 236 0.0 0.9 0.00 0.00 0.00 90 1016.0
20260510120600 61 248 0.0 0.9 0.00 0.00 0.00 91 1016.0
20260510120003 60 147 0.0 0.9 0.00 0.00 0.00 92 1015.8
20260510115700 60 166 0.0 0.9 0.00 0.00 0.00 93 1015.7
20260510115059 58 149 0.0 0.0 0.00 0.00 0.00 95 1015.6
20260510114201 56 150 0.0 1.7 0.00 0.00 0.00 97 1015.5
20260510113559 56 151 0.0 1.7 0.00 0.00 0.00 98 1015.6
20260510112702 54 331 0.0 0.9 0.00 0.00 0.00 98 1015.4
20260510112059 54 333 0.0 0.0 0.00 0.00 0.00 98 1015.3
20260510111200 53 333 0.0 0.0 0.00 0.00 0.00 99 1015.0
20260510110600 52 333 0.0 0.0 0.00 0.00 0.00 99 1014.9
20260510110004 52 333 0.0 0.0 0.00 0.00 0.00 99 1014.6
20260510105659 52 333 0.0 0.0 0.00 0.00 0.00 99 1014.6
20260510105100 52 333 0.0 0.0 0.00 0.00 0.00 99 1014.5
20260510104159 52 333 0.0 0.0 0.00 0.00 0.00 99 1014.4
20260510103559 51 333 0.0 0.0 0.00 0.00 0.00 99 1014.4
20260510102659 51 333 0.0 0.0 0.00 0.00 0.00 97 1014.4
20260510102100 51 333 0.0 0.9 0.00 0.00 0.00 97 1014.4
20260510101201 52 333 0.0 0.0 0.00 0.00 0.00 97 1014.5
20260510100600 53 333 0.0 0.0 0.00 0.00 0.00 97 1014.3
20260510100002 53 333 0.0 0.0 0.00 0.00 0.00 97 1014.1
20260510095658 54 332 0.0 0.0 0.00 0.00 0.00 97 1014.1
20260510095100 55 333 0.0 0.9 0.00 0.00 0.00 97 1014.2
20260510094200 55 333 0.0 0.9 0.00 0.00 0.00 99 1014.0
20260510093559 55 331 0.0 0.9 0.00 0.00 0.00 99 1013.9
20260510092700 55 360 0.0 1.7 0.00 0.00 0.00 99 1013.7
20260510092100 55 52 0.0 1.7 0.00 0.00 0.00 99 1013.6
20260510091159 55 356 0.0 0.9 0.00 0.00 0.00 98 1013.4
20260510090559 55 9 0.0 0.9 0.00 0.00 0.00 98 1013.4
20260510090002 55 10 0.0 0.9 0.00 0.00 0.00 98 1013.4
20260510085059 56 11 0.0 0.9 0.00 0.00 0.00 98 1013.4
20260510084159 57 10 0.0 0.0 0.00 0.00 0.00 99 1013.3
20260510083559 57 10 0.0 0.9 0.00 0.00 0.00 99 1013.2
20260510083000 57 356 0.0 2.6 0.00 0.00 0.00 99 1013.1
20260510082700 57 354 0.0 2.6 0.00 0.00 0.00 100 1013.1
20260510082059 56 339 0.0 2.6 0.00 0.00 0.00 99 1013.2
20260510081203 56 13 0.0 0.9 0.00 0.00 0.00 99 1013.2
20260510080600 56 343 0.0 0.9 0.00 0.00 0.00 98 1013.1
20260510080002 56 343 0.0 0.0 0.00 0.00 0.00 98 1013.1
20260510075701 56 343 0.0 0.0 0.00 0.00 0.00 98 1013.1
20260510075059 56 343 0.0 0.0 0.00 0.00 0.00 98 1013.1
20260510074159 57 343 0.0 0.0 0.00 0.00 0.00 99 1013.1
20260510073559 57 343 0.0 0.0 0.00 0.00 0.00 98 1013.0
20260510072659 57 343 0.0 0.9 0.00 0.00 0.00 98 1012.8
20260510072059 57 7 0.0 0.0 0.00 0.00 0.00 98 1012.9
20260510071159 57 7 0.0 0.0 0.00 0.00 0.00 97 1012.9
20260510070559 58 8 0.0 0.0 0.00 0.00 0.00 97 1013.0
20260510070003 58 8 0.0 0.9 0.00 0.00 0.00 97 1013.0
20260510065659 58 8 0.0 0.9 0.00 0.00 0.00 98 1013.0
20260510065101 59 8 0.0 0.9 0.00 0.00 0.00 99 1013.0
20260510064159 58 1 0.0 0.9 0.00 0.00 0.00 99 1013.1
20260510063603 58 1 0.0 0.9 0.00 0.00 0.00 99 1013.1
20260510062659 58 9 0.0 0.9 0.00 0.00 0.00 99 1013.0
20260510062100 57 10 0.0 0.9 0.00 0.00 0.00 98 1013.1
20260510061200 57 319 0.0 0.0 0.00 0.00 0.00 98 1013.2
20260510060602 57 319 0.0 0.0 0.00 0.00 0.00 99 1013.2
20260510060002 56 319 0.0 0.0 0.00 0.00 0.00 97 1013.2
20260510055659 56 319 0.0 0.0 0.00 0.00 0.00 97 1013.2
20260510055059 57 319 0.0 0.0 0.00 0.00 0.00 97 1013.1
20260510054200 57 319 0.0 0.0 0.00 0.00 0.00 97 1013.2
20260510053559 57 319 0.0 0.0 0.00 0.00 0.00 97 1013.3
20260510052701 57 319 0.0 0.0 0.00 0.00 0.00 97 1013.4
20260510052059 57 319 0.0 0.0 0.00 0.00 0.00 96 1013.4
20260510051200 58 319 0.0 0.0 0.00 0.00 0.00 97 1013.6
20260510050559 58 319 0.0 0.0 0.00 0.00 0.00 97 1013.7
20260510050002 58 319 0.0 0.0 0.00 0.00 0.00 96 1013.7
20260510045102 58 319 0.0 0.0 0.00 0.00 0.00 95 1013.6
20260510044500 59 319 0.0 0.0 0.00 0.00 0.00 95 1013.7
20260510043603 59 319 0.0 0.0 0.00 0.00 0.00 96 1013.6
20260510043001 59 319 0.0 0.0 0.00 0.00 0.00 96 1013.6
20260510042100 59 342 0.0 0.0 0.00 0.00 0.00 95 1013.6
20260510041500 59 342 0.0 0.0 0.00 0.00 0.00 94 1013.5
20260510040602 60 342 0.0 0.0 0.00 0.00 0.00 94 1013.4
20260510040005 60 342 0.0 0.0 0.00 0.00 0.00 93 1013.5
20260510035101 60 342 0.0 0.9 0.00 0.00 0.00 94 1013.3
20260510034501 60 233 0.0 2.6 0.00 0.00 0.00 94 1013.2
20260510033601 60 160 0.0 0.0 0.00 0.00 0.00 93 1013.0
20260510033001 60 159 0.0 0.0 0.00 0.00 0.00 94 1013.0
20260510032105 60 159 0.0 0.0 0.00 0.00 0.00 93 1012.9
20260510031503 61 159 0.0 0.0 0.00 0.00 0.00 93 1012.8
20260510030604 60 159 0.0 0.0 0.00 0.00 0.00 94 1012.7
20260510030008 60 159 0.0 0.0 0.00 0.00 0.00 94 1012.8
20260510025103 60 159 0.0 0.0 0.00 0.00 0.00 94 1012.7
20260510024501 60 159 0.0 0.0 0.00 0.00 0.00 93 1012.7
20260510023600 60 159 0.0 0.0 0.00 0.00 0.00 93 1012.6
20260510023001 60 159 0.0 0.0 0.00 0.00 0.00 93 1012.6
20260510022101 60 159 0.0 0.0 0.00 0.00 0.00 92 1012.6
20260510021500 61 159 0.0 0.0 0.00 0.00 0.00 92 1012.4
20260510020604 61 159 0.0 0.0 0.00 0.00 0.00 91 1012.2
20260510020006 61 159 0.0 0.0 0.00 0.00 0.00 91 1012.2
20260510015104 61 159 0.0 0.0 0.00 0.00 0.00 90 1012.0
20260510014504 61 159 0.0 0.0 0.00 0.00 0.00 90 1012.0
20260510013601 62 159 0.0 0.0 0.00 0.00 0.00 89 1011.7
20260510013000 62 159 0.0 0.0 0.00 0.00 0.00 87 1011.5
20260510012100 63 159 0.0 0.0 0.00 0.00 0.00 88 1011.5
20260510010600 64 159 0.0 0.0 0.00 0.00 0.00 84 1011.2
20260510004502 66 159 0.0 0.0 0.00 0.00 0.00 82 1011.0
20260510003601 67 159 0.0 0.0 0.00 0.00 0.00 80 1010.9
20260510002100 67 160 0.0 0.0 0.00 0.00 0.00 79 1010.8
20260510001501 67 155 0.0 0.0 0.00 0.00 0.00 78 1010.9
20260510001200 67 120 0.0 0.0 0.00 0.00 0.00 77 1011.0
20260510000603 68 120 0.0 0.0 0.00 0.00 0.00 76 1010.9
20260510000001 69 120 0.0 0.0 0.00 0.00 0.00 74 1010.8
20260509235102 70 120 0.0 0.0 0.00 0.00 0.00 72 1010.7
20260509234200 72 120 0.0 0.0 0.00 0.00 0.00 69 1010.6
20260509232700 76 120 0.0 0.0 0.00 0.00 0.00 64 1010.4
20260509232100 76 120 0.0 0.0 0.00 0.00 0.00 64 1010.4
20260509231200 75 121 0.0 0.0 0.00 0.00 0.00 66 1010.0
20260509230600 74 121 0.0 0.0 0.00 0.00 0.00 66 1010.0
20260509230004 74 121 0.0 0.0 0.00 0.00 0.00 65 1010.1
20260509225701 75 121 0.0 0.0 0.00 0.00 0.00 63 1010.2
20260509225100 75 121 0.0 0.0 0.00 0.00 0.00 63 1010.2
20260509223600 75 121 0.0 0.9 0.00 0.00 0.00 63 1010.2
20260509222700 75 117 0.0 1.7 0.00 0.00 0.00 64 1010.3
20260509222100 75 132 0.0 1.7 0.00 0.00 0.00 63 1010.3
20260509221503 75 128 0.0 3.5 0.00 0.00 0.00 63 1010.3
20260509221203 75 71 0.0 2.6 0.00 0.00 0.00 63 1010.2
20260509220602 76 195 0.0 7.0 0.00 0.00 0.00 62 1010.2
20260509220004 76 227 0.0 5.2 0.00 0.00 0.00 62 1010.0
20260509215701 76 266 0.9 5.2 0.00 0.00 0.00 61 1010.2
20260509215101 76 304 1.7 6.1 0.00 0.00 0.00 60 1010.0
20260509214200 78 264 0.0 3.5 0.00 0.00 0.00 56 1010.0
20260509213602 78 177 0.0 4.3 0.00 0.00 0.00 56 1009.8
20260509212701 76 94 0.0 2.6 0.00 0.00 0.00 61 1009.9
20260509212100 75 120 0.0 4.3 0.00 0.00 0.00 60 1009.8
20260509211200 77 352 0.9 4.3 0.00 0.00 0.00 58 1009.9
20260509210600 77 168 1.7 3.5 0.00 0.00 0.00 58 1009.8
20260509210010 77 264 0.9 3.5 0.00 0.00 0.00 60 1009.8
20260509205700 77 214 0.0 6.1 0.00 0.00 0.00 61 1009.8
20260509205100 77 62 0.9 6.1 0.00 0.00 0.00 59 1009.9
20260509204201 77 51 0.9 7.0 0.00 0.00 0.00 57 1009.9
20260509203604 77 222 0.9 2.6 0.00 0.00 0.00 60 1010.0
20260509202701 75 146 1.7 7.0 0.00 0.00 0.00 60 1010.0
20260509202102 76 302 1.7 7.8 0.00 0.00 0.00 56 1010.2
20260509201202 77 104 0.9 4.3 0.00 0.00 0.00 58 1010.1
20260509200600 76 183 0.9 6.1 0.00 0.00 0.00 60 1010.1
20260509200003 77 213 0.0 4.3 0.00 0.00 0.00 58 1010.0
20260509195701 77 212 0.0 5.2 0.00 0.00 0.00 60 1010.0
20260509195100 76 158 1.7 5.2 0.00 0.00 0.00 61 1010.0
20260509194202 76 160 0.9 4.3 0.00 0.00 0.00 59 1010.2
20260509193600 76 128 0.9 3.5 0.00 0.00 0.00 59 1010.1
20260509192700 75 246 0.9 7.8 0.00 0.00 0.00 58 1010.2
20260509192100 76 169 0.0 8.7 0.00 0.00 0.00 58 1010.3
20260509191200 76 162 0.9 6.1 0.00 0.00 0.00 59 1010.6
20260509190600 77 207 0.0 6.1 0.00 0.00 0.00 55 1010.6
20260509190006 77 239 1.7 9.6 0.00 0.00 0.00 55 1010.7
20260509185701 76 204 2.6 9.6 0.00 0.00 0.00 58 1010.6
20260509185100 75 115 0.9 6.1 0.00 0.00 0.00 60 1010.6
20260509184200 74 241 1.7 7.8 0.00 0.00 0.00 56 1010.8
20260509183600 75 259 1.7 7.8 0.00 0.00 0.00 57 1010.9
20260509182702 76 110 3.5 7.0 0.00 0.00 0.00 58 1011.2
20260509182100 76 333 2.6 10.4 0.00 0.00 0.00 59 1011.2
20260509181201 75 252 2.6 10.4 0.00 0.00 0.00 58 1011.4
20260509180600 75 258 1.7 7.8 0.00 0.00 0.00 58 1011.5
20260509180002 75 133 2.6 7.8 0.00 0.00 0.00 63 1011.5
20260509175700 75 242 1.7 7.8 0.00 0.00 0.00 58 1011.6
20260509175100 74 241 0.0 7.8 0.00 0.00 0.00 63 1011.6
20260509174201 75 269 0.9 11.3 0.00 0.00 0.00 59 1011.7
20260509173600 75 270 2.6 13.0 0.00 0.00 0.00 64 1011.7
20260509172701 75 259 3.5 11.3 0.00 0.00 0.00 61 1011.8
20260509172100 74 300 1.7 7.0 0.00 0.00 0.00 62 1011.8
20260509171200 73 255 2.6 12.2 0.00 0.00 0.00 63 1012.0
20260509170601 73 206 1.7 9.6 0.00 0.00 0.00 63 1011.9
20260509170009 74 270 0.0 6.1 0.00 0.00 0.00 65 1011.9
20260509165701 74 222 1.7 6.1 0.00 0.00 0.00 65 1011.7
20260509165100 74 179 1.7 7.0 0.00 0.00 0.00 65 1011.9
20260509164200 73 219 3.5 12.2 0.00 0.00 0.00 66 1012.1
20260509163559 73 290 4.3 12.2 0.00 0.00 0.00 64 1012.3
20260509162700 73 203 1.7 6.1 0.00 0.00 0.00 67 1012.5
20260509162100 72 203 1.7 9.6 0.00 0.00 0.00 68 1012.4
20260509161200 71 256 2.6 11.3 0.00 0.00 0.00 69 1012.5
20260509160600 71 300 2.6 11.3 0.00 0.00 0.00 67 1012.5
20260509160004 72 247 3.5 8.7 0.00 0.00 0.00 66 1012.6
20260509155701 72 299 2.6 6.1 0.00 0.00 0.00 67 1012.6
20260509155059 72 276 2.6 10.4 0.00 0.00 0.00 68 1012.7
20260509154200 72 243 2.6 11.3 0.00 0.00 0.00 67 1012.7
20260509153559 71 288 2.6 7.8 0.00 0.00 0.00 70 1012.8
20260509152701 71 264 4.3 11.3 0.00 0.00 0.00 68 1012.8
20260509152100 71 321 1.7 5.2 0.00 0.00 0.00 71 1012.8
20260509151200 70 103 2.6 6.1 0.00 0.00 0.00 71 1013.0
20260509150600 69 251 1.7 6.1 0.00 0.00 0.00 72 1013.1
20260509150007 69 238 1.7 7.0 0.00 0.00 0.00 73 1013.1
20260509145701 69 224 1.7 8.7 0.00 0.00 0.00 75 1013.1
20260509145105 69 97 1.7 6.1 0.00 0.00 0.00 73 1013.1
20260509144202 68 130 0.9 10.4 0.00 0.00 0.00 76 1013.0
20260509143603 67 206 0.9 10.4 0.00 0.00 0.00 79 1013.0
20260509142659 66 143 0.9 6.1 0.00 0.00 0.00 78 1013.1
20260509142100 65 319 0.9 4.3 0.00 0.00 0.00 81 1013.4
20260509141201 65 122 0.0 5.2 0.00 0.00 0.00 80 1013.6